2023/07/15 00:00:00, 0.0,27.6
2023/07/15 00:10:00, 0.0,27.3
2023/07/15 00:20:00, 0.0,27.6
2023/07/15 00:30:00, 0.0,27.5
2023/07/15 00:40:00, 0.0,27.7
2023/07/15 00:50:00, 0.0,27.6
2023/07/15 01:00:00, 0.0,27.6
2023/07/15 01:10:00, 0.0,27.2
2023/07/15 01:20:00, 0.0,27.6
2023/07/15 01:30:00, 0.0,27.6
2023/07/15 01:40:00, 0.0,27.5
2023/07/15 01:50:00, 0.0,27.6
2023/07/15 02:00:00, 0.0,27.3
2023/07/15 02:10:00, 0.0,27.5
2023/07/15 02:20:00, 0.0,27.6
2023/07/15 02:30:00, 0.0,27.7
2023/07/15 02:40:00, 0.0,27.3
2023/07/15 02:50:00, 0.0,27.5
2023/07/15 03:00:00, 0.0,27.2
2023/07/15 03:10:00, 0.0,26.6
2023/07/15 03:20:00, 0.0,26.3
2023/07/15 03:30:00, 0.0,26.9
2023/07/15 03:40:00, 0.0,26.8
2023/07/15 03:50:00, 0.0,27.2
2023/07/15 04:00:00, 0.0,27.6
2023/07/15 04:10:00, 0.0,27.1
2023/07/15 04:20:00, 0.0,27.2
2023/07/15 04:30:00, 0.0,27.1
2023/07/15 04:40:00, 0.0,27.4
2023/07/15 04:50:00, 0.0,27.1
2023/07/15 05:00:00, 0.0,27.6
2023/07/15 05:10:00, 0.0,27.9
2023/07/15 05:20:00, 0.0,27.7
2023/07/15 05:30:00, 0.0,27.6
2023/07/15 05:40:00, 0.0,27.6
2023/07/15 05:50:00, 0.0,27.8
2023/07/15 06:00:00, 0.0,27.7
2023/07/15 06:10:00, 0.0,27.7
2023/07/15 06:20:00, 0.0,28.0
2023/07/15 06:30:00, 0.0,27.9
2023/07/15 06:40:00, 0.0,27.9
2023/07/15 06:50:00, 0.0,28.0
2023/07/15 07:00:00, 0.0,28.0
2023/07/15 07:10:00, 0.0,28.3
2023/07/15 07:20:00, 0.0,28.5
2023/07/15 07:30:00, 0.0,28.6
2023/07/15 07:40:00, 0.0,28.5
2023/07/15 07:50:00, 0.0,28.6
2023/07/15 08:00:00, 0.0,28.6
2023/07/15 08:10:00, 0.0,28.6
2023/07/15 08:20:00, 0.0,28.9
2023/07/15 08:30:00, 0.1,29.0
2023/07/15 08:40:00, 0.1,29.3
2023/07/15 08:50:00, 0.1,29.8
2023/07/15 09:00:00, 0.2,30.3
2023/07/15 09:10:00, 0.1,30.3
2023/07/15 09:20:00, 0.1,30.3
2023/07/15 09:30:00, 0.1,30.6
2023/07/15 09:40:00, 0.1,30.7
2023/07/15 09:50:00, 0.0,30.3
2023/07/15 10:00:00, 0.0,30.3
2023/07/15 10:10:00, 0.1,30.7
2023/07/15 10:20:00, 0.3,32.1
2023/07/15 10:30:00, 0.5,32.5
2023/07/15 10:40:00, 0.7,33.6
2023/07/15 10:50:00, 0.8,34.2
2023/07/15 11:00:00, 0.8,34.8
2023/07/15 11:10:00, 0.8,34.6
2023/07/15 11:20:00, 0.9,34.7
2023/07/15 11:30:00, 0.6,34.4
2023/07/15 11:40:00, 0.6,34.3
2023/07/15 11:50:00, 0.5,34.3
2023/07/15 12:00:00, 0.7,34.8
2023/07/15 12:10:00, 0.6,34.5
2023/07/15 12:20:00, 0.8,34.9
2023/07/15 12:30:00, 0.6,34.9
2023/07/15 12:40:00, 0.5,34.6
2023/07/15 12:50:00, 0.5,34.7
2023/07/15 13:00:00, 0.4,34.2
2023/07/15 13:10:00, 0.4,34.3
2023/07/15 13:20:00, 0.5,34.5
2023/07/15 13:30:00, 0.5,35.3
2023/07/15 13:40:00, 0.3,35.4
2023/07/15 13:50:00, 0.2,34.7
2023/07/15 14:00:00, 0.2,34.1
2023/07/15 14:10:00, 0.2,34.7
2023/07/15 14:20:00, 0.2,34.7
2023/07/15 14:30:00, 0.2,34.3
2023/07/15 14:40:00, 0.2,33.1
2023/07/15 14:50:00, 0.1,32.4
2023/07/15 15:00:00, 0.1,32.6
2023/07/15 15:10:00, 0.1,32.8
2023/07/15 15:20:00, 0.1,33.6
2023/07/15 15:30:00, 0.2,35.2
2023/07/15 15:40:00, 0.3,34.8
2023/07/15 15:50:00, 0.2,33.7
2023/07/15 16:00:00, 0.2,34.1
2023/07/15 16:10:00, 0.2,34.2
2023/07/15 16:20:00, 0.2,34.8
2023/07/15 16:30:00, 0.2,35.6
2023/07/15 16:40:00, 0.2,35.4
2023/07/15 16:50:00, 0.1,34.6
2023/07/15 17:00:00, 0.1,35.3
2023/07/15 17:10:00, 0.1,33.6
2023/07/15 17:20:00, 0.1,34.2
2023/07/15 17:30:00, 0.1,32.2
2023/07/15 17:40:00, 0.0,31.6
2023/07/15 17:50:00, 0.0,32.6
2023/07/15 18:00:00, 0.0,32.0
2023/07/15 18:10:00, 0.0,32.4
2023/07/15 18:20:00, 0.0,31.1
2023/07/15 18:30:00, 0.0,31.9
2023/07/15 18:40:00, 0.0,30.8
2023/07/15 18:50:00, 0.0,30.5
2023/07/15 19:00:00, 0.0,30.1
2023/07/15 19:10:00, 0.0,29.8
2023/07/15 19:20:00, 0.0,29.5
2023/07/15 19:30:00, 0.0,29.5
2023/07/15 19:40:00, 0.0,29.2
2023/07/15 19:50:00, 0.0,28.9
2023/07/15 20:00:00, 0.0,28.6
2023/07/15 20:10:00, 0.0,28.3
2023/07/15 20:20:00, 0.0,27.8
2023/07/15 20:30:00, 0.0,27.9
2023/07/15 20:40:00, 0.0,28.1
2023/07/15 20:50:00, 0.0,27.9
2023/07/15 21:00:00, 0.0,28.0
2023/07/15 21:10:00, 0.0,27.8
2023/07/15 21:20:00, 0.0,27.5
2023/07/15 21:30:00, 0.0,27.8
2023/07/15 21:40:00, 0.0,27.9
2023/07/15 21:50:00, 0.0,27.6
2023/07/15 22:00:00, 0.0,27.6
2023/07/15 22:10:00, 0.0,26.9
2023/07/15 22:20:00, 0.0,26.7
2023/07/15 22:30:00, 0.0,26.5
2023/07/15 22:40:00, 0.0,26.0
2023/07/15 22:50:00, 0.0,25.8
2023/07/15 23:00:00, 0.0,26.9
2023/07/15 23:10:00, 0.0,26.7
2023/07/15 23:20:00, 0.0,27.6
2023/07/15 23:30:00, 0.0,26.6
2023/07/15 23:40:00, 0.0,26.8
2023/07/15 23:50:00, 0.0,26.3
